Weather in Ivdel

Russia / Sverdlovsk Oblast     60°41′50″N   60°25′02″E
temp.,
°C
wind,
m/s
gust,
m/s
humid.,
%
clouds,
%
prec.,
mm/h
press.,
hPa
HPBL,
m
31 july, sat
sat3123:00+10w11982 0.1 100311
02:00+9wnw11965 0.0 100411
05:00+8nw11955 0.0 100511
08:00+13wsw007554 0.0 1006202
11:00+20ssw114693 0.0 10061112
14:00+22s23415 0.0 10051779
17:00+23s454532 0.0 10041911
20:00+19s3870100 0.0 1004495
1 august, sun
sun123:00+15sse311945 0.0 1003288
02:00+14sse2999100 0.1 1002283
05:00+15s26100100 1.8 1001321
08:00+16sw2395100 0.3 1000274
11:00+22w5761100 0.3 10011178
14:00+24w574566 0.0 10011665
17:00+23w57475 0.0 10021711
20:00+19w410695 0.1 10031070
2 august, mon
mon223:00+14w39860 0.1 1005298
02:00+12w11950 0.0 100616
05:00+12w24955 0.0 100782
08:00+18w49654 0.0 1008580
11:00+22w58503 0.0 10091441
14:00+24w464279 0.0 10092317
17:00+20w266020 0.0 1009196
20:00+20wsw2666100 0.0 1009185
3 august, tue
tue323:00+17w2685100 0.1 1009132
02:00+15wsw229557 0.6 100940
05:00+14wsw22964 0.6 101040
08:00+19w26815 0.0 1010330
11:00+24nw2450100 0.0 10111236
14:00+26w2341100 0.0 10111903
17:00+27w1439100 0.0 10101917
20:00+23sse226283 0.0 101033
4 august, wed
wed423:00+18sse117553 0.0 101121
02:00+16sw2396100 0.4 101165
05:00+17sse2598100 3.7 1011108
08:00+20sse389287 0.4 1011336
11:00+26s356017 0.4 1011699
14:00+30ssw454226 0.0 10091419
17:00+31s34395 0.0 10091542
20:00+26sse27625 0.0 1009151